Flag for U.S.A. Weather past 2 weeks in Honolulu, Hawaii, U.S.A.

Now
90 °F

Scattered clouds.


Feels Like: 93 °F
Forecast: 73 / 84 °F
Wind: 15 mph from Northeast

Location: Honolulu International Airport

Current Time: Sep 2, 2014 at 2:27:45 PM

Latest Report: Sep 2, 2014 at 1:53 PM


Visibility: 10 mi

Pressure: 29.95 "Hg

Humidity: 47%

Dew point: 67 °F

Location of HonoluluLocation

Historic Weather in Honolulu — Graph

°F

Honolulu temperature yesterday

Maximum temperature yesterday: 86 °F (at 10:53 AM)
Minimum temperature yesterday: 74 °F (at 4:53 AM)
Average temperature yesterday: 81 °F

Past Weeks' High & Low Weather Summary

 TemperatureHumidityPressure
High90 °F (Aug 23, 1:53 PM)88% (Aug 24, 5:53 AM)30.04 "Hg (Aug 24, 5:53 AM)
Low74 °F (Aug 31, 5:53 AM)39% (Aug 23, 1:53 PM)29.83 "Hg (Aug 28, 3:53 PM)
Average81 °F63%29.95 "Hg
* Reported Aug 18 12:53 PM — Sep 2 12:53 PM, Honolulu, Weather by CustomWeather, © 2014

Note: Actual official high and low records may vary slightly from our data, if they occured in-between our weather recording intervals... More about our weather records

Advertising

Honolulu weather history for previous 24 hours

 ConditionsComfort  
Time TempWeatherWind HumidityBarometerVisibility
12:53 PM
Sep 2
89 °FScattered clouds.15 mph46%29.96 "Hg10 mi
11:53 AM90 °FScattered clouds.13 mph43%29.98 "Hg10 mi
10:53 AM88 °FScattered clouds.8 mph48%30.00 "Hg10 mi
9:53 AM86 °FScattered clouds.10 mph53%30.01 "Hg10 mi
8:53 AM84 °FScattered clouds.8 mph59%30.01 "Hg10 mi
7:53 AM81 °FScattered clouds.No wind67%30.01 "Hg10 mi
6:53 AM77 °FPassing clouds.5 mph74%30.00 "Hg10 mi
5:53 AM77 °FPassing clouds.3 mph77%29.99 "Hg10 mi
4:53 AM76 °FPassing clouds.No wind80%29.98 "Hg10 mi
3:53 AM77 °FPassing clouds.3 mph77%29.98 "Hg10 mi
2:53 AM77 °FPassing clouds.5 mph79%29.98 "Hg10 mi
1:53 AM78 °FPassing clouds.3 mph76%30.00 "Hg10 mi
12:53 AM79 °FPassing clouds.8 mph72%30.01 "Hg10 mi
11:53 PM
Sep 1
80 °FPassing clouds.9 mph69%30.03 "Hg10 mi
10:53 PM80 °FPassing clouds.10 mph71%30.03 "Hg10 mi
9:53 PM80 °FPartly cloudy.6 mph69%30.04 "Hg10 mi
8:53 PM80 °FPassing clouds.5 mph67%30.03 "Hg10 mi
7:53 PM81 °FPassing clouds.5 mph67%30.01 "Hg10 mi
6:53 PM82 °FPartly cloudy.8 mph63%29.99 "Hg10 mi
5:53 PM82 °FBroken clouds.9 mph63%29.98 "Hg10 mi
4:53 PM84 °FBroken clouds.7 mph65%29.97 "Hg10 mi
3:53 PM86 °FBroken clouds.8 mph63%29.97 "Hg10 mi
2:53 PM85 °FScattered clouds.7 mph65%29.98 "Hg10 mi
Weather by CustomWeather, © 2014

See weather overviewHow to use our weather pages